EZY2712 LEPA-EGGD

Flight info

Callsign EZY2712
Flight time 1h 49m
Altitude 34000
Route LEPA/24R N0447F340 DRAG4A DRAGO DCT PAPOS DCT UMURE DCT XIKEN DCT KARES DCT ARBEK DCT REBUL DCT USKAR DCT MOPAS DCT GIROM DCT GONUP DCT MANAK DCT MUREL DCT NOZHU DCT SHIRI DCT TOJAQ TOJA2B EGGD/27
Aircraft A320/M-GEZOA/L

Departure

Time 2026-05-03 20:40
Airport Palma de Mallorca Airport (LEPA)

Arrival

Time 2026-05-03 22:29
Airport Bristol Airport (EGGD)
Time Latitude Longitude Altitude Speed Heading
2026-05-03 20:15 39.54999 2.72672 30 ft 0 kts 148°
2026-05-03 20:30 39.55011 2.72662 30 ft 4 kts 146°
2026-05-03 20:30 39.55031 2.72642 30 ft 4 kts 134°
2026-05-03 20:30 39.55046 2.72615 30 ft 4 kts 91°
2026-05-03 20:31 39.55045 2.72600 30 ft 0 kts 61°
2026-05-03 20:33 39.55045 2.72601 30 ft 1 kts 61°
2026-05-03 20:33 39.55073 2.72664 30 ft 13 kts 59°
2026-05-03 20:33 39.55142 2.72807 30 ft 23 kts 58°
2026-05-03 20:34 39.55224 2.72979 30 ft 23 kts 59°
2026-05-03 20:34 39.55307 2.73155 30 ft 23 kts 58°
2026-05-03 20:34 39.55390 2.73331 30 ft 23 kts 58°
2026-05-03 20:34 39.55472 2.73501 30 ft 21 kts 58°
2026-05-03 20:35 39.55551 2.73558 30 ft 14 kts 328°
2026-05-03 20:35 39.55653 2.73504 30 ft 17 kts 22°
2026-05-03 20:35 39.55701 2.73604 30 ft 16 kts 53°
2026-05-03 20:35 39.55776 2.73754 30 ft 21 kts 58°
2026-05-03 20:36 39.55846 2.73899 30 ft 14 kts 51°
2026-05-03 20:36 39.55919 2.73880 30 ft 8 kts 328°
2026-05-03 20:36 39.55934 2.73867 30 ft 0 kts 329°
2026-05-03 20:38 39.55938 2.73865 30 ft 5 kts 329°
2026-05-03 20:38 39.56007 2.73799 30 ft 8 kts 283°
2026-05-03 20:38 39.55993 2.73763 30 ft 0 kts 238°
2026-05-03 20:39 39.55950 2.73672 30 ft 43 kts 238°
2026-05-03 20:39 39.55653 2.73045 30 ft 116 kts 238°
2026-05-03 20:40 39.55135 2.71951 41 ft 169 kts 238°
2026-05-03 20:40 39.54511 2.70639 708 ft 169 kts 237°
2026-05-03 20:40 39.53890 2.69397 1518 ft 165 kts 234°
2026-05-03 20:40 39.53464 2.68556 1997 ft 167 kts 233°
2026-05-03 20:41 39.52540 2.66751 2462 ft 194 kts 233°
2026-05-03 20:41 39.51771 2.65246 2906 ft 206 kts 234°
2026-05-03 20:41 39.51224 2.64173 3358 ft 207 kts 235°
2026-05-03 20:41 39.50175 2.62111 4384 ft 208 kts 236°
2026-05-03 20:42 39.49370 2.60532 5202 ft 209 kts 236°
2026-05-03 20:42 39.48565 2.58954 6010 ft 210 kts 237°
2026-05-03 20:42 39.48030 2.57907 6556 ft 210 kts 237°
2026-05-03 20:42 39.47225 2.56333 7315 ft 211 kts 237°
2026-05-03 20:43 39.46416 2.54750 8089 ft 211 kts 237°
2026-05-03 20:43 39.45634 2.53070 8674 ft 225 kts 249°
2026-05-03 20:43 39.45493 2.50913 9011 ft 253 kts 281°
2026-05-03 20:43 39.46360 2.48928 9480 ft 275 kts 307°
2026-05-03 20:44 39.47700 2.47068 10175 ft 286 kts 309°
2026-05-03 20:44 39.49149 2.45170 10444 ft 309 kts 310°
2026-05-03 20:44 39.50735 2.43127 10699 ft 331 kts 310°
2026-05-03 20:44 39.52412 2.40971 11254 ft 341 kts 310°
2026-05-03 20:45 39.54197 2.38664 11987 ft 345 kts 310°
2026-05-03 20:45 39.55807 2.36567 12651 ft 349 kts 310°
2026-05-03 20:45 39.57526 2.34312 13385 ft 352 kts 309°
2026-05-03 20:45 39.59253 2.32031 14093 ft 356 kts 309°
2026-05-03 20:46 39.60994 2.29723 14724 ft 359 kts 309°
2026-05-03 20:46 39.62748 2.27394 15355 ft 363 kts 309°
2026-05-03 20:46 39.64598 2.24940 15997 ft 367 kts 309°
2026-05-03 20:46 39.66387 2.22565 16241 ft 382 kts 309°
2026-05-03 20:47 39.68281 2.20038 16357 ft 397 kts 309°
2026-05-03 20:47 39.70241 2.17429 16604 ft 408 kts 310°
2026-05-03 20:47 39.72254 2.14756 17043 ft 413 kts 310°
2026-05-03 20:47 39.74225 2.12137 17515 ft 417 kts 310°
2026-05-03 20:48 39.76239 2.09454 18008 ft 420 kts 310°
2026-05-03 20:48 39.78287 2.06723 18468 ft 423 kts 310°
2026-05-03 20:48 39.80350 2.03971 18889 ft 426 kts 310°
2026-05-03 20:48 39.82415 2.01211 19300 ft 429 kts 310°
2026-05-03 20:49 39.84519 1.98390 19709 ft 432 kts 310°
2026-05-03 20:49 39.86621 1.95571 20110 ft 435 kts 310°
2026-05-03 20:49 39.88708 1.92777 20502 ft 438 kts 310°
2026-05-03 20:49 39.90869 1.89888 20886 ft 440 kts 310°
2026-05-03 20:50 39.93008 1.87023 21257 ft 443 kts 310°
2026-05-03 20:50 39.95155 1.84141 21643 ft 445 kts 310°
2026-05-03 20:50 39.97296 1.81268 22014 ft 448 kts 310°
2026-05-03 20:50 39.99565 1.78419 22381 ft 454 kts 316°
2026-05-03 20:51 40.02079 1.76152 22725 ft 461 kts 327°
2026-05-03 20:51 40.04986 1.74399 23063 ft 468 kts 334°
2026-05-03 20:51 40.07712 1.72984 23377 ft 470 kts 335°
2026-05-03 20:51 40.10769 1.71416 23695 ft 472 kts 335°
2026-05-03 20:52 40.13879 1.69830 23981 ft 474 kts 335°
2026-05-03 20:52 40.16930 1.68276 24270 ft 476 kts 335°
2026-05-03 20:52 40.19982 1.66719 24545 ft 478 kts 335°
2026-05-03 20:52 40.23129 1.65109 24834 ft 479 kts 335°
2026-05-03 20:53 40.26190 1.63537 25103 ft 481 kts 335°
2026-05-03 20:53 40.29321 1.61923 25373 ft 482 kts 334°
2026-05-03 20:53 40.32443 1.60310 25637 ft 484 kts 334°
2026-05-03 20:53 40.35572 1.58692 25879 ft 486 kts 335°
2026-05-03 20:54 40.38780 1.57032 26140 ft 487 kts 334°
2026-05-03 20:54 40.44922 1.53845 26624 ft 490 kts 335°
2026-05-03 20:54 40.48075 1.52209 26984 ft 489 kts 335°
2026-05-03 20:55 40.51282 1.50543 27371 ft 488 kts 335°
2026-05-03 20:55 40.54422 1.48910 27743 ft 487 kts 334°
2026-05-03 20:55 40.57584 1.47266 28133 ft 486 kts 334°
2026-05-03 20:55 40.60688 1.45650 28508 ft 485 kts 334°
2026-05-03 20:56 40.63833 1.44013 28894 ft 484 kts 334°
2026-05-03 20:56 40.66969 1.42380 29275 ft 483 kts 334°
2026-05-03 20:56 40.70093 1.40749 29660 ft 482 kts 334°
2026-05-03 20:56 40.73172 1.39139 30038 ft 481 kts 334°
2026-05-03 20:57 40.76261 1.37523 30342 ft 480 kts 334°
2026-05-03 20:57 40.79359 1.35901 30668 ft 480 kts 334°
2026-05-03 20:57 40.82450 1.34279 30966 ft 479 kts 334°
2026-05-03 20:57 40.85542 1.32654 31286 ft 479 kts 334°
2026-05-03 20:58 40.88734 1.30971 31599 ft 478 kts 334°
2026-05-03 20:58 40.91656 1.29428 31891 ft 478 kts 334°
2026-05-03 20:58 40.94820 1.27760 32210 ft 478 kts 334°
2026-05-03 20:58 40.97839 1.26172 32514 ft 477 kts 334°
2026-05-03 20:59 41.00925 1.24551 32826 ft 476 kts 334°
2026-05-03 20:59 41.03896 1.22987 33129 ft 476 kts 334°
2026-05-03 20:59 41.06869 1.21416 33427 ft 475 kts 333°
2026-05-03 20:59 41.10034 1.19737 33736 ft 475 kts 333°
2026-05-03 21:00 41.13060 1.18167 33985 ft 477 kts 337°
2026-05-03 21:00 41.14081 1.17737 34002 ft 479 kts 340°
2026-05-03 21:00 41.19459 1.16607 34042 ft 486 kts 352°
2026-05-03 21:00 41.22909 1.16270 34041 ft 486 kts 352°
2026-05-03 21:01 41.29625 1.15593 34033 ft 486 kts 351°
2026-05-03 21:01 41.36132 1.14909 34046 ft 487 kts 351°
2026-05-03 21:02 41.42860 1.14198 34026 ft 487 kts 351°
2026-05-03 21:02 41.49613 1.13481 34031 ft 487 kts 351°
2026-05-03 21:03 41.56387 1.12762 34039 ft 487 kts 351°
2026-05-03 21:03 41.63170 1.12047 34037 ft 487 kts 351°
2026-05-03 21:04 41.69878 1.11336 34029 ft 488 kts 351°
2026-05-03 21:04 41.76636 1.10624 34020 ft 488 kts 352°
2026-05-03 21:05 41.83288 1.09925 34016 ft 488 kts 351°
2026-05-03 21:05 41.89992 1.09206 34014 ft 488 kts 352°
2026-05-03 21:06 41.96753 1.08481 34011 ft 488 kts 352°
2026-05-03 21:06 42.03446 1.07767 34015 ft 489 kts 352°
2026-05-03 21:07 42.09126 1.07150 34020 ft 489 kts 352°
2026-05-03 21:07 42.15887 1.06420 34028 ft 489 kts 352°
2026-05-03 21:08 42.22617 1.05696 34040 ft 489 kts 352°
2026-05-03 21:08 42.29465 1.04960 34048 ft 490 kts 352°
2026-05-03 21:09 42.36406 1.04207 34048 ft 490 kts 352°
2026-05-03 21:09 42.43074 1.03488 34036 ft 491 kts 352°
2026-05-03 21:10 42.49953 1.02748 34033 ft 490 kts 352°
2026-05-03 21:10 42.56741 1.02001 34037 ft 491 kts 352°
2026-05-03 21:11 42.63560 1.01252 34035 ft 491 kts 352°
2026-05-03 21:11 42.70322 1.00519 34025 ft 491 kts 352°
2026-05-03 21:12 42.77085 0.99713 34027 ft 489 kts 347°
2026-05-03 21:12 42.83672 0.97602 34007 ft 486 kts 341°
2026-05-03 21:13 42.90198 0.95334 34003 ft 486 kts 341°
2026-05-03 21:13 42.96763 0.93078 34002 ft 487 kts 341°
2026-05-03 21:14 43.03327 0.90820 33992 ft 487 kts 341°
2026-05-03 21:14 43.09841 0.88565 33982 ft 487 kts 341°
2026-05-03 21:15 43.16428 0.86278 33982 ft 487 kts 341°
2026-05-03 21:15 43.22977 0.83990 33985 ft 487 kts 341°
2026-05-03 21:16 43.29466 0.81713 33981 ft 487 kts 341°
2026-05-03 21:16 43.35903 0.79462 33983 ft 487 kts 341°
2026-05-03 21:17 43.41388 0.77550 33990 ft 487 kts 341°
2026-05-03 21:17 43.48828 0.74293 33991 ft 479 kts 331°
2026-05-03 21:18 43.54833 0.70737 33982 ft 479 kts 331°
2026-05-03 21:18 43.60977 0.67117 33976 ft 480 kts 331°
2026-05-03 21:19 43.67016 0.63572 33969 ft 480 kts 331°
2026-05-03 21:19 43.73202 0.59924 33965 ft 481 kts 331°
2026-05-03 21:20 43.79334 0.56286 33962 ft 482 kts 331°
2026-05-03 21:20 43.85456 0.52636 33959 ft 483 kts 331°
2026-05-03 21:21 43.91418 0.49080 33956 ft 484 kts 331°
2026-05-03 21:21 43.97677 0.45344 33969 ft 485 kts 331°
2026-05-03 21:22 44.03799 0.41680 33961 ft 485 kts 331°
2026-05-03 21:22 44.10138 0.37870 33964 ft 486 kts 331°
2026-05-03 21:23 44.16292 0.34166 33958 ft 486 kts 331°
2026-05-03 21:23 44.22494 0.30435 33973 ft 486 kts 331°
2026-05-03 21:24 44.28704 0.26695 33974 ft 486 kts 331°
2026-05-03 21:24 44.34871 0.22959 33984 ft 485 kts 331°
2026-05-03 21:25 44.41126 0.19155 33993 ft 485 kts 331°
2026-05-03 21:25 44.47325 0.15383 34003 ft 484 kts 331°
2026-05-03 21:26 44.53502 0.11625 33993 ft 484 kts 330°
2026-05-03 21:26 44.59625 0.07885 33995 ft 484 kts 330°
2026-05-03 21:27 44.64725 0.04761 33997 ft 483 kts 330°
2026-05-03 21:27 44.70952 0.00932 33998 ft 483 kts 330°
2026-05-03 21:28 44.77114 -0.02862 33996 ft 483 kts 330°
2026-05-03 21:28 44.83331 -0.06687 33989 ft 483 kts 330°
2026-05-03 21:29 44.89490 -0.10488 33988 ft 484 kts 330°
2026-05-03 21:29 44.95641 -0.14295 33974 ft 485 kts 330°
2026-05-03 21:30 45.01833 -0.18144 33969 ft 486 kts 330°
2026-05-03 21:30 45.07985 -0.21977 33971 ft 487 kts 330°
2026-05-03 21:31 45.14248 -0.25888 33968 ft 488 kts 330°
2026-05-03 21:31 45.20517 -0.29808 33970 ft 490 kts 330°
2026-05-03 21:32 45.26766 -0.33717 33959 ft 491 kts 330°
2026-05-03 21:32 45.32921 -0.37579 33962 ft 491 kts 330°
2026-05-03 21:33 45.39134 -0.41502 33986 ft 492 kts 330°
2026-05-03 21:33 45.45413 -0.45475 33994 ft 493 kts 330°
2026-05-03 21:34 45.51383 -0.49187 33983 ft 490 kts 329°
2026-05-03 21:34 45.57479 -0.53175 33985 ft 491 kts 329°
2026-05-03 21:35 45.63517 -0.57016 33992 ft 492 kts 330°
2026-05-03 21:35 45.69781 -0.60956 33996 ft 491 kts 329°
2026-05-03 21:36 45.76028 -0.64928 33990 ft 491 kts 329°
2026-05-03 21:36 45.81712 -0.68561 33998 ft 491 kts 329°
2026-05-03 21:37 45.87895 -0.72540 33993 ft 490 kts 329°
2026-05-03 21:37 45.94089 -0.76542 33993 ft 490 kts 329°
2026-05-03 21:38 46.00050 -0.80395 33991 ft 490 kts 329°
2026-05-03 21:38 46.06450 -0.84527 33992 ft 490 kts 329°
2026-05-03 21:39 46.12615 -0.88521 33990 ft 490 kts 329°
2026-05-03 21:39 46.18739 -0.92496 33984 ft 490 kts 329°
2026-05-03 21:40 46.24802 -0.96657 33975 ft 487 kts 325°
2026-05-03 21:40 46.30702 -1.01317 33970 ft 485 kts 323°
2026-05-03 21:41 46.36439 -1.06050 33971 ft 486 kts 323°
2026-05-03 21:41 46.41335 -1.09996 33970 ft 487 kts 324°
2026-05-03 21:42 46.47191 -1.14611 33963 ft 488 kts 324°
2026-05-03 21:42 46.53163 -1.19298 33973 ft 489 kts 324°
2026-05-03 21:43 46.59183 -1.24069 33985 ft 490 kts 324°
2026-05-03 21:43 46.65140 -1.28833 33995 ft 491 kts 324°
2026-05-03 21:44 46.71154 -1.33647 33998 ft 492 kts 324°
2026-05-03 21:44 46.76982 -1.38320 33992 ft 493 kts 324°
2026-05-03 21:45 46.83056 -1.43196 33988 ft 493 kts 324°
2026-05-03 21:45 46.88966 -1.47950 33982 ft 494 kts 324°
2026-05-03 21:46 46.95034 -1.52847 33965 ft 494 kts 324°
2026-05-03 21:46 47.01009 -1.57683 33973 ft 494 kts 324°
2026-05-03 21:47 47.06980 -1.62529 33979 ft 494 kts 324°
2026-05-03 21:47 47.12980 -1.67413 33983 ft 494 kts 324°
2026-05-03 21:48 47.18948 -1.72293 33991 ft 494 kts 324°
2026-05-03 21:48 47.24758 -1.77043 33994 ft 494 kts 324°
2026-05-03 21:49 47.30765 -1.81959 33995 ft 493 kts 324°
2026-05-03 21:49 47.36684 -1.86819 33998 ft 493 kts 324°
2026-05-03 21:50 47.42567 -1.91674 34005 ft 492 kts 324°
2026-05-03 21:50 47.48470 -1.96553 34001 ft 492 kts 324°
2026-05-03 21:51 47.54408 -2.01474 33985 ft 492 kts 324°
2026-05-03 21:51 47.60176 -2.06261 33985 ft 492 kts 325°
2026-05-03 21:52 47.66026 -2.11128 33983 ft 492 kts 325°
2026-05-03 21:52 47.71959 -2.16095 33985 ft 492 kts 325°
2026-05-03 21:53 47.78120 -2.20962 33980 ft 499 kts 335°
2026-05-03 21:53 47.85070 -2.23452 33976 ft 505 kts 344°
2026-05-03 21:54 47.92149 -2.25390 33967 ft 509 kts 354°
2026-05-03 21:54 47.99298 -2.25882 33969 ft 510 kts 355°
2026-05-03 21:55 48.05352 -2.26264 33966 ft 511 kts 355°
2026-05-03 21:55 48.12507 -2.26719 33971 ft 511 kts 355°
2026-05-03 21:56 48.19661 -2.27180 33974 ft 511 kts 355°
2026-05-03 21:56 48.26775 -2.27749 33973 ft 509 kts 348°
2026-05-03 21:57 48.33672 -2.30009 33971 ft 506 kts 343°
2026-05-03 21:57 48.40518 -2.32402 33967 ft 506 kts 343°
2026-05-03 21:58 48.47384 -2.34840 33968 ft 506 kts 343°
2026-05-03 21:58 48.54252 -2.37286 33969 ft 507 kts 343°
2026-05-03 21:59 48.61132 -2.39729 33965 ft 507 kts 343°
2026-05-03 21:59 48.68021 -2.42163 33964 ft 507 kts 343°
2026-05-03 22:00 48.74898 -2.44621 33976 ft 507 kts 343°
2026-05-03 22:00 48.81761 -2.47075 33974 ft 506 kts 343°
2026-05-03 22:01 48.88595 -2.49526 34000 ft 507 kts 343°
2026-05-03 22:01 48.95469 -2.51994 34000 ft 506 kts 343°
2026-05-03 22:02 49.02153 -2.54409 33996 ft 504 kts 343°
2026-05-03 22:02 49.08912 -2.56849 33997 ft 503 kts 343°
2026-05-03 22:03 49.15767 -2.59324 33993 ft 501 kts 343°
2026-05-03 22:03 49.22558 -2.61803 33983 ft 500 kts 343°
2026-05-03 22:04 49.29338 -2.64291 33990 ft 499 kts 343°
2026-05-03 22:04 49.36095 -2.66763 33988 ft 499 kts 343°
2026-05-03 22:05 49.42771 -2.69207 33994 ft 498 kts 343°
2026-05-03 22:05 49.49550 -2.71690 33993 ft 496 kts 343°
2026-05-03 22:06 49.56262 -2.74169 33991 ft 496 kts 343°
2026-05-03 22:06 49.62926 -2.76634 33983 ft 495 kts 344°
2026-05-03 22:07 49.69624 -2.79107 33981 ft 494 kts 344°
2026-05-03 22:07 49.76115 -2.81023 33973 ft 496 kts 357°
2026-05-03 22:08 49.79552 -2.80665 33810 ft 495 kts
2026-05-03 22:08 49.82981 -2.80057 32915 ft 496 kts
2026-05-03 22:08 49.86432 -2.79404 31945 ft 498 kts
2026-05-03 22:08 49.89860 -2.78731 30991 ft 500 kts
2026-05-03 22:09 49.93335 -2.78038 30036 ft 502 kts
2026-05-03 22:09 49.96777 -2.77359 28901 ft 504 kts
2026-05-03 22:09 50.00322 -2.76671 27736 ft 506 kts
2026-05-03 22:10 50.07362 -2.75322 25630 ft 505 kts
2026-05-03 22:10 50.10814 -2.74670 24877 ft 498 kts
2026-05-03 22:10 50.14246 -2.74021 23893 ft 496 kts
2026-05-03 22:10 50.17664 -2.73372 22901 ft 494 kts
2026-05-03 22:11 50.21019 -2.72730 22047 ft 488 kts
2026-05-03 22:11 50.24385 -2.72077 21232 ft 481 kts
2026-05-03 22:11 50.27723 -2.71422 20449 ft 476 kts
2026-05-03 22:11 50.31084 -2.70764 20059 ft 473 kts
2026-05-03 22:12 50.34239 -2.70150 19911 ft 472 kts
2026-05-03 22:12 50.37504 -2.69519 19956 ft 472 kts
2026-05-03 22:12 50.40769 -2.68890 19950 ft 472 kts
2026-05-03 22:12 50.44123 -2.68237 19944 ft 472 kts
2026-05-03 22:13 50.47335 -2.67609 19845 ft 470 kts
2026-05-03 22:13 50.50541 -2.66984 19139 ft 464 kts
2026-05-03 22:13 50.53752 -2.66358 18417 ft 459 kts
2026-05-03 22:13 50.56946 -2.65737 17654 ft 454 kts
2026-05-03 22:14 50.60075 -2.65131 16914 ft 449 kts
2026-05-03 22:14 50.62115 -2.64734 16441 ft 445 kts
2026-05-03 22:14 50.66211 -2.63930 15506 ft 439 kts
2026-05-03 22:14 50.69224 -2.63335 14829 ft 434 kts
2026-05-03 22:15 50.72209 -2.62748 14155 ft 429 kts
2026-05-03 22:15 50.74313 -2.62336 13685 ft 426 kts
2026-05-03 22:15 50.77215 -2.61769 12966 ft 422 kts
2026-05-03 22:15 50.80051 -2.61213 12275 ft 417 kts
2026-05-03 22:16 50.82922 -2.60642 11575 ft 412 kts
2026-05-03 22:16 50.85806 -2.60063 11082 ft 401 kts
2026-05-03 22:16 50.88327 -2.59559 10926 ft 385 kts
2026-05-03 22:16 50.90997 -2.59028 10794 ft 366 kts
2026-05-03 22:17 50.92968 -2.58636 10691 ft 342 kts
2026-05-03 22:17 50.95849 -2.58067 10506 ft 311 kts
2026-05-03 22:17 50.98071 -2.57629 10046 ft 300 kts
2026-05-03 22:17 51.00022 -2.57245 9485 ft 296 kts
2026-05-03 22:18 51.02033 -2.56848 8854 ft 292 kts
2026-05-03 22:18 51.04174 -2.56424 8180 ft 291 kts
2026-05-03 22:18 51.06146 -2.56027 7966 ft 284 kts
2026-05-03 22:18 51.08039 -2.55642 7941 ft 268 kts
2026-05-03 22:19 51.09887 -2.55268 7871 ft 257 kts
2026-05-03 22:19 51.11600 -2.54924 7584 ft 254 kts
2026-05-03 22:19 51.13376 -2.54570 7260 ft 252 kts
2026-05-03 22:19 51.15099 -2.54227 6945 ft 251 kts
2026-05-03 22:20 51.16842 -2.53879 6627 ft 249 kts
2026-05-03 22:20 51.18582 -2.53530 6311 ft 248 kts
2026-05-03 22:20 51.20277 -2.53191 5983 ft 246 kts
2026-05-03 22:20 51.21971 -2.52851 5667 ft 244 kts
2026-05-03 22:21 51.23088 -2.52627 5465 ft 242 kts
2026-05-03 22:21 51.25254 -2.52194 5306 ft 230 kts
2026-05-03 22:21 51.26342 -2.51961 5203 ft 221 kts 11°
2026-05-03 22:21 51.27709 -2.51080 5063 ft 207 kts 36°
2026-05-03 22:22 51.28907 -2.48773 4823 ft 195 kts 58°
2026-05-03 22:22 51.29369 -2.47548 4611 ft 195 kts 60°
2026-05-03 22:22 51.30229 -2.45187 4370 ft 185 kts 60°
2026-05-03 22:22 51.30642 -2.44047 4214 ft 183 kts 60°
2026-05-03 22:23 51.31289 -2.42255 3934 ft 182 kts 60°
2026-05-03 22:23 51.31928 -2.40511 3661 ft 181 kts 56°
2026-05-03 22:23 51.32993 -2.39315 3518 ft 180 kts 13°
2026-05-03 22:23 51.34171 -2.39386 3504 ft 179 kts 340°
2026-05-03 22:24 51.35149 -2.40471 3507 ft 179 kts 308°
2026-05-03 22:24 51.35833 -2.42137 3507 ft 179 kts 303°
2026-05-03 22:24 51.36557 -2.43777 3508 ft 179 kts 305°
2026-05-03 22:24 51.37281 -2.45372 3508 ft 179 kts 305°
2026-05-03 22:25 51.37976 -2.46902 3343 ft 177 kts 306°
2026-05-03 22:25 51.38696 -2.48633 3034 ft 178 kts 295°
2026-05-03 22:25 51.39040 -2.50658 2747 ft 177 kts 273°
2026-05-03 22:25 51.39000 -2.52472 2551 ft 176 kts 266°
2026-05-03 22:26 51.38926 -2.54502 2492 ft 167 kts 266°
2026-05-03 22:26 51.38866 -2.56130 2418 ft 152 kts 266°
2026-05-03 22:26 51.38804 -2.57794 2238 ft 145 kts 266°
2026-05-03 22:26 51.38744 -2.59385 2060 ft 142 kts 267°
2026-05-03 22:27 51.38685 -2.60961 1873 ft 141 kts 267°
2026-05-03 22:27 51.38626 -2.62528 1685 ft 140 kts 267°
2026-05-03 22:27 51.38567 -2.64082 1485 ft 140 kts 266°
2026-05-03 22:27 51.38508 -2.65640 1283 ft 140 kts 266°
2026-05-03 22:28 51.38450 -2.67214 1089 ft 139 kts 265°
2026-05-03 22:28 51.38390 -2.68736 896 ft 139 kts 265°
2026-05-03 22:28 51.38337 -2.70087 721 ft 139 kts 266°
2026-05-03 22:28 51.38281 -2.71566 632 ft 124 kts 266°
2026-05-03 22:29 51.38239 -2.72603 633 ft 54 kts 266°
2026-05-03 22:29 51.38220 -2.73096 632 ft 37 kts 266°
2026-05-03 22:29 51.38245 -2.73343 630 ft 8 kts 341°
2026-05-03 22:29 51.38326 -2.73337 623 ft 18 kts 17°
2026-05-03 22:30 51.38386 -2.73175 624 ft 20 kts 86°
2026-05-03 22:30 51.38394 -2.72972 620 ft 22 kts 86°
2026-05-03 22:30 51.38403 -2.72734 620 ft 24 kts 86°
2026-05-03 22:30 51.38412 -2.72484 626 ft 23 kts 86°
2026-05-03 22:31 51.38421 -2.72248 616 ft 24 kts 86°
2026-05-03 22:31 51.38430 -2.71989 616 ft 23 kts 90°
2026-05-03 22:31 51.38432 -2.71778 617 ft 17 kts 85°
2026-05-03 22:31 51.38439 -2.71599 629 ft 11 kts 86°
2026-05-03 22:32 51.38444 -2.71484 616 ft 11 kts 86°
2026-05-03 22:32 51.38472 -2.71398 622 ft 8 kts 26°
2026-05-03 22:32 51.38522 -2.71399 615 ft 8 kts 355°
2026-05-03 22:32 51.38554 -2.71403 614 ft 2 kts 355°
2026-05-03 22:33 51.38555 -2.71403 614 ft 0 kts 355°